HFA811 LLHA-LCLK

Flight info

Callsign HFA811
Flight time 0h 37m
Altitude 14000
Route GALIM P68 MERVA N131 BOSIS
Aircraft AT76/M-SDFGIRY/S

Departure

Time 2026-04-25 13:38
Airport Uri Michaeli Haifa International Airport (LLHA)

Arrival

Time 2026-04-25 14:15
Airport Larnaca International Airport (LCLK)
Time Latitude Longitude Altitude Speed Heading
2026-04-25 13:04 32.81134 35.04087 20 ft 0 kts 122°
2026-04-25 13:33 32.81124 35.04123 21 ft 7 kts 84°
2026-04-25 13:33 32.81141 35.04187 23 ft 9 kts 70°
2026-04-25 13:33 32.81161 35.04254 23 ft 9 kts 70°
2026-04-25 13:33 32.81164 35.04299 25 ft 8 kts 111°
2026-04-25 13:34 32.81085 35.04343 24 ft 11 kts 163°
2026-04-25 13:34 32.81012 35.04368 25 ft 11 kts 158°
2026-04-25 13:34 32.80944 35.04401 28 ft 11 kts 159°
2026-04-25 13:34 32.80871 35.04434 26 ft 12 kts 159°
2026-04-25 13:35 32.80812 35.04462 24 ft 13 kts 158°
2026-04-25 13:35 32.80725 35.04502 24 ft 13 kts 159°
2026-04-25 13:35 32.80638 35.04539 23 ft 13 kts 159°
2026-04-25 13:35 32.80546 35.04580 20 ft 15 kts 160°
2026-04-25 13:36 32.80496 35.04593 19 ft 1 kts 161°
2026-04-25 13:36 32.80496 35.04602 17 ft 1 kts 76°
2026-04-25 13:36 32.80508 35.04603 17 ft 2 kts 339°
2026-04-25 13:36 32.80515 35.04598 19 ft 3 kts 331°
2026-04-25 13:37 32.80533 35.04587 21 ft 3 kts 338°
2026-04-25 13:37 32.80562 35.04574 19 ft 24 kts 339°
2026-04-25 13:37 32.80908 35.04423 24 ft 82 kts 340°
2026-04-25 13:37 32.81608 35.04109 118 ft 121 kts 339°
2026-04-25 13:38 32.82359 35.03723 697 ft 117 kts 333°
2026-04-25 13:38 32.83094 35.03215 1164 ft 133 kts 328°
2026-04-25 13:38 32.84013 35.02776 1551 ft 150 kts 342°
2026-04-25 13:38 32.84960 35.02235 1990 ft 158 kts 312°
2026-04-25 13:39 32.85242 35.00968 2385 ft 174 kts 260°
2026-04-25 13:39 32.84893 34.99992 2598 ft 179 kts 242°
2026-04-25 13:39 32.84351 34.98751 2794 ft 195 kts 244°
2026-04-25 13:39 32.83739 34.97213 2894 ft 215 kts 246°
2026-04-25 13:40 32.83224 34.95512 2941 ft 222 kts 255°
2026-04-25 13:40 32.82904 34.93722 2952 ft 228 kts 261°
2026-04-25 13:40 32.82697 34.91840 2972 ft 229 kts 267°
2026-04-25 13:40 32.83062 34.90022 2905 ft 233 kts 303°
2026-04-25 13:41 32.84274 34.88736 2805 ft 237 kts 330°
2026-04-25 13:41 32.85742 34.87801 2746 ft 241 kts 332°
2026-04-25 13:41 32.87178 34.86761 2749 ft 241 kts 326°
2026-04-25 13:41 32.88482 34.85555 2870 ft 235 kts 319°
2026-04-25 13:42 32.89656 34.84192 2905 ft 235 kts 314°
2026-04-25 13:42 32.90721 34.82784 3157 ft 234 kts 312°
2026-04-25 13:42 32.91806 34.81310 3410 ft 237 kts 311°
2026-04-25 13:42 32.92545 34.80310 3575 ft 239 kts 312°
2026-04-25 13:43 32.94031 34.78357 3909 ft 242 kts 313°
2026-04-25 13:43 32.94805 34.77360 4081 ft 243 kts 313°
2026-04-25 13:43 32.95942 34.75888 4334 ft 245 kts 313°
2026-04-25 13:43 32.97105 34.74385 4635 ft 243 kts 313°
2026-04-25 13:44 32.98234 34.72922 4937 ft 242 kts 313°
2026-04-25 13:44 32.99377 34.71448 5238 ft 242 kts 313°
2026-04-25 13:44 33.00516 34.69973 5545 ft 242 kts 312°
2026-04-25 13:44 33.01658 34.68494 5838 ft 242 kts 312°
2026-04-25 13:45 33.02804 34.67011 6140 ft 243 kts 312°
2026-04-25 13:45 33.03947 34.65528 6440 ft 243 kts 312°
2026-04-25 13:45 33.05094 34.64038 6733 ft 244 kts 312°
2026-04-25 13:45 33.06251 34.62549 7041 ft 245 kts 312°
2026-04-25 13:46 33.07406 34.61050 7343 ft 245 kts 311°
2026-04-25 13:46 33.08548 34.59565 7641 ft 246 kts 311°
2026-04-25 13:46 33.09709 34.58054 7944 ft 248 kts 311°
2026-04-25 13:46 33.10890 34.56521 8187 ft 256 kts 311°
2026-04-25 13:47 33.12098 34.54950 8538 ft 258 kts 311°
2026-04-25 13:47 33.13316 34.53367 8892 ft 260 kts 311°
2026-04-25 13:47 33.14544 34.51772 9241 ft 262 kts 311°
2026-04-25 13:47 33.15774 34.50175 9593 ft 261 kts 311°
2026-04-25 13:48 33.17004 34.48572 9939 ft 262 kts 310°
2026-04-25 13:48 33.18236 34.46970 10293 ft 261 kts 310°
2026-04-25 13:48 33.19462 34.45369 10586 ft 262 kts 310°
2026-04-25 13:48 33.20682 34.43778 10856 ft 263 kts 310°
2026-04-25 13:49 33.21920 34.42158 11131 ft 264 kts 310°
2026-04-25 13:49 33.23165 34.40540 11404 ft 266 kts 309°
2026-04-25 13:49 33.24413 34.38907 11679 ft 266 kts 309°
2026-04-25 13:49 33.25665 34.37271 11955 ft 267 kts 309°
2026-04-25 13:50 33.26918 34.35638 12230 ft 267 kts 309°
2026-04-25 13:50 33.28173 34.33997 12504 ft 268 kts 309°
2026-04-25 13:50 33.29429 34.32347 12766 ft 267 kts 309°
2026-04-25 13:50 33.30921 34.31031 13060 ft 273 kts 333°
2026-04-25 13:51 33.32726 34.30229 13336 ft 280 kts 339°
2026-04-25 13:51 33.34593 34.29509 13612 ft 283 kts 339°
2026-04-25 13:51 33.36472 34.28772 13837 ft 287 kts 338°
2026-04-25 13:51 33.38373 34.27950 13919 ft 294 kts 336°
2026-04-25 13:52 33.40317 34.27059 13956 ft 302 kts 336°
2026-04-25 13:52 33.42300 34.26160 13974 ft 308 kts 336°
2026-04-25 13:52 33.44301 34.25263 13981 ft 311 kts 336°
2026-04-25 13:52 33.46304 34.24362 13980 ft 305 kts 336°
2026-04-25 13:53 33.48280 34.23468 13974 ft 302 kts 336°
2026-04-25 13:53 33.50238 34.22587 13960 ft 300 kts 336°
2026-04-25 13:53 33.52191 34.21704 13948 ft 299 kts 336°
2026-04-25 13:53 33.54138 34.20828 13946 ft 299 kts 336°
2026-04-25 13:54 33.56085 34.19947 13949 ft 298 kts 336°
2026-04-25 13:54 33.58019 34.19075 13949 ft 298 kts 336°
2026-04-25 13:54 33.59985 34.18182 13755 ft 303 kts 336°
2026-04-25 13:54 33.61967 34.17287 13708 ft 304 kts 336°
2026-04-25 13:55 33.63945 34.16395 13679 ft 303 kts 336°
2026-04-25 13:55 33.65899 34.15513 13636 ft 304 kts 336°
2026-04-25 13:55 33.67878 34.14615 13575 ft 304 kts 336°
2026-04-25 13:55 33.69860 34.13718 13558 ft 304 kts 336°
2026-04-25 13:56 33.71837 34.12817 13504 ft 303 kts 336°
2026-04-25 13:56 33.73813 34.11922 13485 ft 303 kts 336°
2026-04-25 13:56 33.75788 34.11026 13302 ft 303 kts 336°
2026-04-25 13:56 33.77757 34.10135 13094 ft 302 kts 336°
2026-04-25 13:57 33.79720 34.09244 12910 ft 302 kts 336°
2026-04-25 13:57 33.81019 34.08653 12793 ft 301 kts 336°
2026-04-25 13:57 33.83616 34.07481 12540 ft 300 kts 338°
2026-04-25 13:57 33.85584 34.06645 12346 ft 300 kts 339°
2026-04-25 13:58 33.87555 34.05823 12135 ft 299 kts 339°
2026-04-25 13:58 33.89521 34.05000 11949 ft 299 kts 338°
2026-04-25 13:58 33.91380 34.03964 11767 ft 292 kts 324°
2026-04-25 13:58 33.93045 34.02572 11580 ft 292 kts 322°
2026-04-25 13:59 33.94717 34.01186 11382 ft 293 kts 324°
2026-04-25 13:59 33.96459 33.99900 11186 ft 295 kts 327°
2026-04-25 13:59 33.98252 33.98671 10992 ft 296 kts 328°
2026-04-25 13:59 34.00040 33.97441 10796 ft 296 kts 328°
2026-04-25 14:00 34.01227 33.96623 10657 ft 297 kts 328°
2026-04-25 14:00 34.03616 33.94946 10401 ft 296 kts 327°
2026-04-25 14:00 34.05380 33.93694 10203 ft 291 kts 328°
2026-04-25 14:00 34.07111 33.92467 10015 ft 286 kts 328°
2026-04-25 14:01 34.08791 33.91272 9829 ft 281 kts 328°
2026-04-25 14:01 34.10464 33.90081 9643 ft 277 kts 328°
2026-04-25 14:01 34.12121 33.88905 9459 ft 274 kts 328°
2026-04-25 14:01 34.13761 33.87742 9278 ft 272 kts 328°
2026-04-25 14:02 34.15389 33.86585 9098 ft 270 kts 328°
2026-04-25 14:02 34.17012 33.85456 8912 ft 268 kts 332°
2026-04-25 14:02 34.18725 33.84554 8720 ft 269 kts 338°
2026-04-25 14:02 34.19889 33.84007 8591 ft 270 kts 338°
2026-04-25 14:03 34.22218 33.82887 8335 ft 269 kts 336°
2026-04-25 14:03 34.23932 33.81997 8141 ft 267 kts 335°
2026-04-25 14:03 34.25636 33.81095 7957 ft 267 kts 335°
2026-04-25 14:03 34.27338 33.80192 7758 ft 266 kts 335°
2026-04-25 14:04 34.29013 33.79306 7566 ft 266 kts 335°
2026-04-25 14:04 34.30705 33.78412 7376 ft 264 kts 336°
2026-04-25 14:04 34.32388 33.77523 7185 ft 264 kts 336°
2026-04-25 14:04 34.34068 33.76627 6993 ft 263 kts 335°
2026-04-25 14:05 34.35740 33.75734 6806 ft 262 kts 336°
2026-04-25 14:05 34.37404 33.74853 6619 ft 261 kts 336°
2026-04-25 14:05 34.39066 33.73975 6432 ft 261 kts 336°
2026-04-25 14:05 34.40727 33.73097 6246 ft 260 kts 336°
2026-04-25 14:06 34.42383 33.72215 6059 ft 260 kts 336°
2026-04-25 14:06 34.44033 33.71337 5876 ft 259 kts 336°
2026-04-25 14:06 34.45690 33.70456 5689 ft 258 kts 336°
2026-04-25 14:06 34.47315 33.69594 5512 ft 257 kts 336°
2026-04-25 14:07 34.48952 33.68722 5332 ft 257 kts 336°
2026-04-25 14:07 34.50067 33.68127 5208 ft 257 kts 337°
2026-04-25 14:07 34.51703 33.67252 5027 ft 257 kts 337°
2026-04-25 14:07 34.53340 33.66382 4846 ft 256 kts 337°
2026-04-25 14:08 34.54968 33.65514 4665 ft 256 kts 337°
2026-04-25 14:08 34.56595 33.64647 4490 ft 255 kts 338°
2026-04-25 14:08 34.58218 33.63785 4308 ft 255 kts 338°
2026-04-25 14:08 34.59835 33.62918 4133 ft 253 kts 338°
2026-04-25 14:09 34.61447 33.62051 3950 ft 253 kts 338°
2026-04-25 14:09 34.63031 33.61199 3775 ft 252 kts 338°
2026-04-25 14:09 34.64627 33.60330 3597 ft 252 kts 338°
2026-04-25 14:09 34.65166 33.60035 3538 ft 251 kts 338°
2026-04-25 14:10 34.67295 33.58867 3301 ft 250 kts 338°
2026-04-25 14:10 34.69397 33.57735 3068 ft 249 kts 339°
2026-04-25 14:10 34.70986 33.56883 2894 ft 248 kts 339°
2026-04-25 14:10 34.72564 33.56039 2726 ft 248 kts 339°
2026-04-25 14:11 34.74128 33.55200 2664 ft 243 kts 339°
2026-04-25 14:11 34.75661 33.54381 2670 ft 238 kts 339°
2026-04-25 14:11 34.77117 33.53606 2538 ft 213 kts 341°
2026-04-25 14:11 34.78460 33.53203 2482 ft 190 kts
2026-04-25 14:12 34.79669 33.53435 2429 ft 160 kts 23°
2026-04-25 14:12 34.80600 33.54078 2203 ft 154 kts 43°
2026-04-25 14:12 34.81338 33.54956 1974 ft 144 kts 48°
2026-04-25 14:12 34.81956 33.55771 1732 ft 124 kts 47°
2026-04-25 14:13 34.82554 33.56488 1511 ft 118 kts 46°
2026-04-25 14:13 34.83139 33.57186 1303 ft 117 kts 47°
2026-04-25 14:13 34.83687 33.57891 1046 ft 113 kts 49°
2026-04-25 14:13 34.84235 33.58574 818 ft 114 kts 46°
2026-04-25 14:14 34.84793 33.59233 636 ft 108 kts 46°
2026-04-25 14:14 34.85328 33.59897 418 ft 111 kts 47°
2026-04-25 14:14 34.85872 33.60557 245 ft 111 kts 46°
2026-04-25 14:14 34.86412 33.61214 88 ft 106 kts 46°
2026-04-25 14:15 34.86869 33.61780 16 ft 59 kts 44°
2026-04-25 14:15 34.86942 33.61865 18 ft 32 kts 45°
2026-04-25 14:15 34.87235 33.62221 15 ft 38 kts 46°
2026-04-25 14:15 34.87366 33.62300 15 ft 17 kts 329°
2026-04-25 14:16 34.87445 33.62208 17 ft 15 kts 313°
2026-04-25 14:16 34.87431 33.62102 16 ft 15 kts 222°
2026-04-25 14:16 34.87360 33.62015 18 ft 14 kts 225°
2026-04-25 14:16 34.87294 33.61934 19 ft 13 kts 227°
2026-04-25 14:17 34.87229 33.61854 19 ft 14 kts 225°
2026-04-25 14:17 34.87158 33.61767 17 ft 15 kts 225°
2026-04-25 14:17 34.87088 33.61682 18 ft 14 kts 225°
2026-04-25 14:17 34.86993 33.61564 15 ft 26 kts 225°
2026-04-25 14:18 34.86892 33.61439 16 ft 14 kts 231°
2026-04-25 14:18 34.86906 33.61333 14 ft 9 kts 272°
2026-04-25 14:18 34.86892 33.61299 14 ft 2 kts 240°
2026-04-25 14:18 34.86901 33.61261 16 ft 7 kts 285°
2026-04-25 14:19 34.86909 33.61204 17 ft 1 kts 318°
2026-04-25 14:19 34.86914 33.61198 18 ft 0 kts 315°
2026-04-25 14:19 34.86915 33.61197 17 ft 0 kts 315°